User: anonymous   Login
Location: Penton Mewsey
(51.2167°N, 1.5167°W)
Time: 11:50:18
(UTC+00:00)
Language:

STARLINK-1215 - Orbit

View from above orbital plane
View from above orbital plane
View from above satellite
View from above satellite

Ground track
Ground track

The orbit data is extracted from the following two-line orbital elements,

1 45225U 20012AZ  20190.91667824 -.00035591  00000-0 -24352-2 0  9991
2 45225  52.9992 298.1789 0001013 106.6756 199.0269 15.05589271 22515
Epoch (UTC): 08 July 2020 22:00:01
Eccentricity: 0.0001013
inclination: 52.9992°
perigee height: 549 km
apogee height: 550 km
right ascension of ascending node: 298.1789°
argument of perigee: 106.6756°
revolutions per day: 15.05589271
mean anomaly at epoch: 199.0269°
orbit number at epoch: 2251

The dashed part of the orbit path shows where the satellite is in the earth's shadow,  

DLR